www.pogodaiklimat.ru

Погода и климат >> Архив погоды >> Австралия >> Morawa Airport


ПОГОДА в Morawa Airport

  • Прогноз погоды в Morawa Airport
  • Монитор погоды в Morawa Airport
  • Климат города

АРХИВ ПОГОДЫ в Morawa Airport

Время (UTC), дата Ветер
(напр.,м/с)
 
Видим.   Явления Облачность Т
(С)
Тd
(С)
f
(%)
Тe
(С)
Тes
(С)
Комфортность P
(гПа)
Po
(гПа)
Тmin
(С)
Tmax
(С)
R
(мм)
R24
(мм)
S
(см)
01 13.01 В 9 н/о н/о +30.9 +1.3 15 +28 +28 жарко 1011.1 980.7 +19.5
03 13.01 В 7 н/о н/о +35.0 +2.5 13 +32 +32 жарко 1009.9 979.5
04 13.01 В 7 н/о н/о +35.4 +2.8 13 +32 +32 жарко 1008.9 978.6
06 13.01 В 6 н/о н/о +38.2 -0.2 9 +34 +34 очень
жарко
1007.0 976.7
07 13.01 В 6 н/о н/о +38.4 0.0 9 +35 +35 очень
жарко
1006.3 976.0
09 13.01 СВ 7 н/о н/о +39.0 -1.2 8 +35 +35 очень
жарко
1005.3 975.1
10 13.01 В 7 н/о н/о +38.7 +0.2 9 +35 +35 очень
жарко
1005.4 975.2
12 13.01 В 5 н/о н/о +35.0 +1.4 12 +32 +32 жарко 1006.9 976.6
13 13.01 В 5 н/о н/о +33.8 +4.5 16 +31 +31 жарко 1007.8 977.5 +40.4
15 13.01 В 6 н/о н/о +32.3 +3.3 16 +30 +30 жарко 1008.2 977.9
16 13.01 В 6 н/о н/о +31.4 +7.1 22 +30 +30 жарко 1008.1 977.8
18 13.01 В 7 н/о н/о +30.3 +9.8 28 +30 +30 жарко 1007.9 977.6
19 13.01 В 6 н/о н/о +29.3 +10.9 32 +30 +30 жарко 1007.9 977.6
21 13.01 В 5 н/о н/о +28.3 +10.9 34 +29 +29 жарко 1008.5 978.2
22 13.01 В 6 н/о н/о +28.5 +12.0 36 +30 +30 жарко 1009.2 978.8
00 14.01 В 9 н/о н/о +29.1 +10.7 32 +29 +29 жарко 1010.0 979.6
01 14.01 В 7 н/о н/о +29.3 +11.4 33 +30 +30 жарко 1010.0 979.6 +26.6
03 14.01 В 7 н/о н/о +32.4 +13.6 32 +34 +34 очень
жарко
1009.3 978.9
04 14.01 В 8 н/о н/о +34.1 +15.1 32 +36 +36 душно 1008.5 978.2
06 14.01 СВ 6 н/о н/о +30.9 +18.6 48 +36 +36 очень
душно
1007.7 977.4
07 14.01 В 6 н/о н/о +31.8 +16.5 40 +35 +35 очень
душно
1007.2 976.9
09 14.01 С 2 н/о н/о +24.5 +24.5 100 +34 +34 очень
душно
1008.4 978.1
10 14.01 ЮВ 3 н/о туман местами н/о +24.3 +24.1 99 +33 +33 очень
душно
1008.5 978.2
12 14.01 ЮВ 6 н/о н/о +23.4 +21.7 90 +32 +32 очень
душно
1008.8 978.5
13 14.01 ЮВ 7 н/о туман местами н/о +22.1 +21.9 99 +29 +29 очень
душно
1009.0 978.7 +35.3
15 14.01 В 7 н/о н/о +21.8 +21.1 96 +28 +28 душно 1009.3 978.9
16 14.01 В 7 н/о туман местами н/о +21.2 +21.2 100 +27 +27 душно 1009.3 978.9
18 14.01 В 6 н/о н/о +20.1 +20.1 100 +24 +24 комфорт 1008.3 978.0
19 14.01 В 9 н/о туман н/о +19.4 +19.4 100 +21 +21 комфорт 1008.2 977.9
21 14.01 В 8 н/о н/о +19.0 +19.0 100 +20 +20 1008.4 978.1
22 14.01 В 8 н/о туман местами н/о +19.2 +19.2 100 +21 +21 комфорт 1008.6 978.3
00 15.01 В 7 н/о н/о +20.0 +20.0 100 +23 +23 комфорт 1008.8 978.5
01 15.01 В 6 н/о {туман} н/о +20.9 +20.9 100 +26 +26 душно 1008.6 978.3 +19.0
03 15.01 В 4 н/о н/о +24.6 +21.5 83 +31 +31 очень
душно
1008.0 977.7
04 15.01 В 5 н/о {туман} н/о +27.8 +22.5 73 +37 +37 очень
душно
1007.1 976.8
06 15.01 С 8 н/о н/о +32.5 +19.4 46 +38 +38 очень
душно
1005.2 975.0
07 15.01 С 7 н/о {туман} н/о +33.8 +20.6 46 +41 +41 опасность
перегрева
1004.3 974.1
09 15.01 С 4 н/о н/о +32.3 +19.2 46 +38 +38 очень
душно
1003.8 973.6
10 15.01 СЗ 3 н/о н/о +29.1 +22.3 67 +38 +38 очень
душно
1004.2 974.0
12 15.01 Ю 3 н/о н/о +26.3 +24.5 90 +37 +37 очень
душно
1005.0 974.8
13 15.01 Ю 3 н/о н/о +25.6 +24.9 96 +36 +36 очень
душно
1005.4 975.2 +34.4
15 15.01 штиль 0 н/о н/о +24.6 +24.6 100 +34 +34 очень
душно
1005.3 975.1
16 15.01 С 1 н/о н/о +24.3 +24.3 100 +34 +34 очень
душно
1005.0 974.8
18 15.01 СВ 6 н/о н/о +26.3 +22.2 78 +34 +34 очень
душно
1004.5 974.3
19 15.01 СВ 5 н/о н/о +25.8 +22.5 82 +34 +34 очень
душно
1004.6 974.4
21 15.01 СВ 3 н/о н/о +25.2 +22.9 87 +33 +33 очень
душно
1005.2 975.0
22 15.01 СВ 4 н/о н/о +25.4 +22.9 86 +34 +34 очень
душно
1005.8 975.5
00 16.01 С 6 н/о н/о +28.9 +23.3 72 +39 +39 очень
душно
1005.6 975.4
01 16.01 С 7 н/о н/о +30.7 +22.0 60 +39 +39 очень
душно
1005.4 975.2 +20.0
03 16.01 С 6 н/о н/о +33.0 +20.5 48 +40 +40 очень
душно
1005.0 974.8
04 16.01 С 8 н/о н/о +35.3 +19.6 40 +41 +41 опасность
перегрева
1004.3 974.1
06 16.01 СЗ 9 н/о н/о +36.3 +17.9 34 +40 +40 очень
душно
1003.2 973.0
07 16.01 СЗ 10 н/о н/о +36.8 +17.4 32 +40 +40 очень
душно
1002.6 972.4
09 16.01 З 7 н/о н/о +33.6 +20.7 47 +41 +41 опасность
перегрева
1002.1 972.0
10 16.01 З 7 н/о н/о +30.8 +20.4 54 +38 +38 очень
душно
1003.1 972.9
12 16.01 З 5 н/о н/о +25.7 +19.6 69 +31 +31 очень
душно
1005.5 975.3
13 16.01 З 4 н/о н/о +24.0 +20.1 79 +30 +30 очень
душно
1006.3 976.0 +37.9
15 16.01 З 2 н/о н/о +22.9 +20.4 86 +30 +30 очень
душно
1006.7 976.4
16 16.01 СЗ 3 н/о н/о +22.9 +20.1 84 +30 +30 очень
душно
1006.5 976.2
18 16.01 СЗ 3 н/о н/о +22.8 +20.0 84 +29 +29 очень
душно
1005.6 975.4
19 16.01 СЗ 3 н/о н/о +22.7 +20.2 86 +29 +29 очень
душно
1005.3 975.1
21 16.01 С 3 н/о н/о +21.7 +21.7 100 +28 +28 душно 1005.1 974.9
22 16.01 СЗ 3 н/о н/о +21.9 +21.9 100 +29 +29 очень
душно
1005.9 975.6
00 17.01 СЗ 4 н/о н/о +22.8 +22.8 100 +31 +31 очень
душно
1006.6 976.3
01 17.01 СЗ 4 н/о в посл. час дождь {туман} н/о +22.8 +22.8 100 +31 +31 очень
душно
1006.8 976.5 +21.0
03 17.01 СЗ 6 н/о н/о +25.3 +20.1 73 +31 +31 очень
душно
1006.7 976.4
04 17.01 З 6 н/о н/о +25.9 +19.8 69 +32 +32 очень
душно
1006.2 975.9
06 17.01 З 6 н/о н/о +27.7 +19.2 60 +33 +33 очень
душно
1006.0 975.7
07 17.01 З 5 н/о н/о +27.6 +19.1 60 +33 +33 очень
душно
1005.9 975.6
09 17.01 ЮЗ 5 н/о н/о +26.4 +19.3 65 +32 +32 очень
душно
1005.2 975.0
10 17.01 ЮЗ 5 н/о н/о +25.5 +19.2 68 +31 +31 очень
душно
1005.5 975.3
12 17.01 ЮЗ 4 н/о н/о +23.5 +19.4 78 +29 +29 душно 1007.2 976.9
13 17.01 ЮЗ 3 н/о н/о +22.6 +19.6 83 +29 +29 очень
душно
1008.1 977.8 +28.6
15 17.01 ЮЗ 4 н/о н/о +20.6 +20.6 100 +25 +25 комфорт 1009.0 978.7
16 17.01 Ю 4 н/о {туман} н/о +20.4 +20.4 100 +25 +25 комфорт 1008.7 978.4
18 17.01 ЮЗ 4 н/о н/о +20.2 +20.2 100 +24 +24 комфорт 1008.2 977.9
19 17.01 ЮЗ 4 н/о {туман} н/о +20.3 +19.6 96 +24 +24 комфорт 1008.3 978.0
21 17.01 Ю 5 н/о н/о +19.5 +19.5 100 +22 +22 комфорт 1009.2 978.8
22 17.01 Ю 4 н/о н/о +19.1 +19.1 100 +21 +21 комфорт 1009.7 979.3
00 18.01 Ю 4 н/о н/о +19.1 +19.1 100 +21 +21 комфорт 1010.5 980.1
01 18.01 Ю 4 н/о н/о +19.8 +18.5 92 +23 +23 комфорт 1010.9 980.5 +18.9
03 18.01 Ю 2 н/о н/о +23.1 +17.6 71 +28 +28 душно 1010.7 980.3
04 18.01 Ю 6 н/о н/о +24.7 +19.1 71 +30 +30 очень
душно
1010.0 979.6
06 18.01 ЮВ 5 н/о н/о +28.1 +17.3 52 +32 +32 душно 1009.2 978.8
07 18.01 ЮВ 5 н/о н/о +29.9 +16.3 44 +33 +33 душно 1008.5 978.2
09 18.01 ЮВ 5 н/о н/о +31.4 +14.5 36 +33 +33 жарко 1007.5 977.2
10 18.01 Ю 7 н/о н/о +30.7 +15.5 40 +33 +33 душно 1008.0 977.7
12 18.01 Ю 9 н/о н/о +25.6 +16.2 56 +29 +29 душно 1009.8 979.4
13 18.01 ЮВ 8 н/о н/о +24.6 +16.1 59 +28 +28 душно 1010.8 980.4 +32.3
15 18.01 ЮВ 5 н/о н/о +23.1 +15.9 64 +28 +28 душно 1011.4 981.0
16 18.01 ЮВ 5 н/о н/о +22.5 +15.6 65 +26 +26 жарко 1011.2 980.8
18 18.01 ЮВ 5 н/о н/о +21.7 +15.3 67 +25 +25 комфорт 1010.6 980.2
19 18.01 ЮВ 4 н/о н/о +21.1 +15.4 70 +24 +24 комфорт 1010.6 980.2
21 18.01 ЮВ 5 н/о н/о +20.0 +15.2 74 +22 +22 комфорт 1011.2 980.8
22 18.01 ЮВ 5 н/о н/о +19.8 +15.0 74 +22 +22 комфорт 1011.7 981.3
00 19.01 ЮВ 7 н/о н/о +22.9 +14.5 59 +27 +27 душно 1012.5 982.0
01 19.01 В 6 н/о н/о +24.6 +14.7 54 +27 +27 жарко 1011.9 981.5 +18.8
03 19.01 ЮВ 4 н/о н/о +29.5 +16.0 44 +33 +33 душно 1010.6 980.2
04 19.01 ЮВ 4 н/о н/о +30.5 +15.8 41 +33 +33 душно 1009.9 979.5
06 19.01 В 4 н/о н/о +34.0 +15.9 34 +36 +36 душно 1008.3 978.0
07 19.01 СВ 4 н/о н/о +35.0 +15.8 32 +37 +37 очень
душно
1007.5 977.2
09 19.01 Ю 3 н/о н/о +35.2 +15.0 30 +37 +37 очень
душно
1006.2 975.9
10 19.01 В 3 н/о н/о +34.9 +14.7 30 +36 +36 душно 1006.4 976.1
12 19.01 Ю 5 н/о н/о +31.8 +15.7 38 +34 +34 душно 1007.3 977.0
13 19.01 Ю 4 н/о н/о +30.6 +16.2 42 +34 +34 очень
душно
1007.8 977.5 +35.8
15 19.01 ЮВ 4 н/о н/о +29.3 +15.8 44 +32 +32 душно 1008.0 977.7
16 19.01 Ю 4 н/о н/о +27.6 +15.6 48 +31 +31 душно 1007.8 977.5
18 19.01 Ю 3 н/о н/о +26.0 +14.5 49 +28 +28 жарко 1007.4 977.1
19 19.01 Ю 4 н/о н/о +25.4 +14.2 50 +28 +28 жарко 1007.1 976.8
21 19.01 ЮВ 2 н/о н/о +24.6 +14.7 54 +27 +27 жарко 1007.1 976.8
22 19.01 ЮВ 3 н/о н/о +25.5 +15.2 53 +28 +28 жарко 1007.4 977.1
00 20.01 В 4 н/о н/о +31.5 +15.0 37 +34 +34 душно 1007.8 977.5
01 20.01 СВ 5 н/о н/о +33.4 +15.4 34 +35 +35 душно 1007.7 977.4 +22.8

 

Местоположение метеостанции Morawa Airport (Западная Австралия, Австралия): широта -29.20 долгота 116.02 высота над уровнем моря 272 м.

В архиве по умолчанию представлена погода в Morawa Airport за последнюю неделю. Архивные данные за месяц целиком и за предыдущие месяцы, начиная с января 2011 года, Вы можете получить, выбрав интересующий диапазон дат из раскрывающегося списка и нажав кнопку "Ввод!".

Внимание! Время в таблицах - всемирное. Для получения местного времени необходимо прибавить поправку, которая в Morawa Airport равна 8 ч.

Смотрите также архив погоды в соседних городах и на ближайших метеорологических станциях:

Погода в Rottnest Island Lighthouse (Западная Австралия, Австралия) (134 км)
Погода в Dalwallinu (Западная Австралия, Австралия) (136 км)
Погода в Geraldton Airport (Западная Австралия, Австралия) (136 км)
Погода в Mount Magnet Aero (Западная Австралия, Австралия) (214 км)
Погода в Gingin Aero (Западная Австралия, Австралия) (253 км)
Погода в Bullsbrook Pearce Amo (Западная Австралия, Австралия) (275 км)
Погода в Wanneroo (Западная Австралия, Австралия) (286 км)
Погода в Cunderdin Airfield (Западная Австралия, Австралия) (293 км)
Погода в Mount Lawley Perth Metro (Западная Австралия, Австралия) (303 км)
Погода в Perth (Западная Австралия, Австралия) (304 км)

Пояснения к столбцам:

Ветер - указаны скорость ветра в м/с - средняя за 10 мин, порывы в срок и между сроками (в фигурных скобках) и направление, откуда дует ветер: С - северный, СВ - северо-восточный, В - восточный, ЮВ - юго-восточный, Ю - южный, ЮЗ - юго-западный, З - западный, СЗ - северо-западный.
Видимость - горизонтальная дальность видимости в метрах или километрах. При видимости от 1 до 10 км при отсутствии осадков обычно наблюдается дымка, при ухудшении видимости до 1 км и менее - туман. В сухую погоду видимость может ухудшаться дымом, пылью или мглою.
Явления - указаны атмосферные явления, наблюдавшиеся в срок или в последний час перед сроком; фигурными скобками обозначены явления, наблюдавшиеся между сроками (за 1-3 часа до срока); квадратными скобками обозначены град или гололедные отложения с указанием их диаметра в мм.
Облачность - указаны через наклонную черту общая и нижняя облачность в баллах и высота нижней границы облаков в метрах; квадратными скобками обозначены формы облаков: Ci - перистые, Cs - перисто-слоистые, Cc - перисто-кучевые, Ac - высококучевые, As - высокослоистые, Sc - слоисто-кучевые, Ns - слоисто-дождевые, Cu - кучевые, Cb - кучево-дождевые. Подробнее классификацию облаков см. в Атласе облаков (PDF).
T - Температура воздуха - температура, измеренная на высоте 2 м над землей.
Td - Температура точки росы - температура, при понижении до которой содержащийся в воздухе водяной пар достигнет насыщения.
f - Относительная влажность воздуха - влажноcть воздуха, измеренная на высоте 2 м над землей.
Te - Эффективная температура - температура, которую ощущает одетый по сезону человек в тени. Характеристика душности погоды. При расчете учитывается влияние влажности воздуха и скорости ветра на теплоощущения человека.
Tes - Эффективная температура на солнце - температура, которую ощущает человек, с поправкой на солнечный нагрев. Характеристика знойности погоды. Зависит от высоты солнца над горизонтом, облачности и скорости ветра. Ночью, в пасмурную погоду, а также при ветре 12 м/с и более поправка равна нулю.
P - Атмосферное давление - приведенное к уровню моря атмосферное давление.
Po - Атмосферное давление - измеренное на уровне метеостанции атмосферное давление.
Tmin - Минимальная температура - минимум температуры воздуха на высоте 2 м над землей.
Tmax - Максимальная температура - максимум температуры воздуха на высоте 2 м над землей.
R - Количество осадков - Количество выпавших осадков за период времени, мм. При наведении курсора мыши на число - период времени, за который выпало указанное количество осадков.
R24 - Количество осадков - Количество выпавших осадков за 24 часа, мм.
S - Снежный покров - Высота снежного покрова, см. При наведении курсора мыши на число - состояние снежного покрова и степень покрытия местности в баллах.